Find the Weather for any City, State  
or Zipcode, or Country:

West Linn, OR 97068 Weather
Local Radar
Local Radar  
Graphs, Details
Graphs and Gauges
Detailed Weather
Detailed Reports
Maps
Temperature
Heat Index
Windchill
Humidity
Radar
Dew Point
Wind
Visibility
Visible Satellite
Satellite
Fronts
Snow Depth
Jet Stream
Flight Rules
Forecast Maps
Temperature Forecast
Maximum Temperature Forecast
Minimum Temperature Forecast
Dewpoint Forecast
Prevalent Weather
12Hr Probability of Precip.
Sky Cover
Health Maps
UV Forecast
Air Quality
Peak Air Quality Index
Weather Station
Oregon Scientific WMR-968
Current Conditions [Select Refresh to Update]
Updated: 8:15am on 3/16/15
(location)
Currently:
41.2°
Clear
fog
High: 46.0° 
(12:00am) 
Low: 41.2° 
(7:58am)
Wind: 4 mph from the NNE
Gust: 5 mph
Today's High Wind: 8 mph (8:07am)
Humidity: 98%
Pressure: 30.19 in  (Steady) 
Pressure Rate: -0.002 in/hr
Dew Point: 40.7°
Wind Chill: 39.1°
Heat Index (feels like): 48.0°
Comfort Level: Cool
Temperature Rate:  -0.55°/hr
 
5 Day Forecast
 
Mon Tue Wed Thu Fri
Clear Clear Clear Clear Clear
Hazy Rain Hazy Mostly Cloudy Rain
63° 60° 63° 64° 64°
44° 45° 41° 45° 45°
Records and Normals
 
Temperature Forecast Normal Record
High 63° 71°
(2007)
Low 44° 34°
(1999)
 
Weather Advisories
No Advisories
Full Advisory Text...
Weather Map
Almanac
 
Sunrise:  
7:19am
Moonrise: 
4:49am
Moon Phase:
21%
Sunset: 
7:15pm
Moonset:  
3:09pm
 Star Chart...
Rainfall Totals
Hourly Rain 0.00 in
Daily Rain: 0.00 in
Monthly Rain: 2.91 in
Yearly Rain: 58.39 in
Normal Rain, month to date: 2.92 in
Normal Rain, year to date: 10.42 in
Local Weather Exchange® Network
Station ID City 
(Click for Map Location)
Neighborhood 
(Click for History)
Last Update (Date & Time) Temperature
 (°)
Dew
Point (°)
Humidity 
(%)
Wind 
(mph)
from the Wind Gust 
(mph) 
Pressure (in) Hourly
Rain (in)
KORWESTL3 West Linn Sunburst II 03/16 08:14:02 41.2 41.0 98 8 North 8 30.19 0.00
KORWESTL18 West Linn Hidden Springs 03/16 08:10:35 41.0 40.0 97 0 North 0 30.04 0.00
KORWESTL7 West Linn Hidden Springs 03/16 08:06:47 41.4 41.0 97 1 NNW 4 30.18 0.00
KORWESTL16 West Linn Ferncreek 2 03/16 08:15:02 41.2 41.0 98 0 NNW 2 30.31 0.00
KORWESTL11 West Linn Ridgebrook Park 03/16 07:52:50 40.5 39.0 95 1 NE 5 30.21 0.00
KORWESTL13 West Linn Vineland 03/16 08:14:54 39.9 37.0 89 0 East 0 29.80 0.00
KORWESTL1 West Linn Beaver Nation on Skyline Ridge 03/16 08:15:05 42.4 41.0 95 0 ENE 1 30.22 0.00
KORWESTL19 West Linn Bolton 03/16 08:10:48 40.3 40.0 100 0 North 0 30.20 0.00
KORLAKEO12 Lake Oswego Marylhurst University 03/16 08:14:52 41.7 42.0 100 0 NW 0 30.09 0.00
KOROREGO29 Oregon City Canemah Way 03/16 08:12:05 40.3 40.0 98 1 NNW 4 30.20 0.00
KORMILWA15 Milwaukie Jennings Lodge 03/16 08:02:27 38.8 39.0 99 0 ESE 0 29.92 0.00
KORGLADS5 GLADSTONE GLADSTONE (USA) 03/16 08:14:54 41.4 40.0 95 0 North 0 29.81 0.00
KOROREGO14 Oregon City 221 Molalla Avenue 03/16 08:15:05 40.9 41.0 100 3 NNE 4 29.87 0.00
KORLAKEO17 Lake Oswego Palisades 03/16 08:10:35 37.2 36.0 95 0 North 0 30.25 0.00
KORMILWA13 Milwaukie Oak Grove 03/16 08:09:22 40.3 40.0 99 0 East 0 29.91 0.00
KORLAKEO18 Lake Oswego MSW South Shore Estates 03/16 08:02:59 38.5 38.0 99 0 SW 0 30.24 0.00
KOROREGO10 Oregon City Tower Vista 03/16 08:14:31 41.2 41.0 98 3 North 3 30.21 0.00
KORMILWA16 Milwaukie Southeast River Road 03/16 08:10:50 43.7 41.0 91 0 North 0 30.30 0.00
KOROREGO34 Oregon City S Whte Ln / Payson Ln 03/16 08:03:25 40.3 40.0 99 0 East 0 30.02 0.00
KORGLADS6 Gladstone Gladstone - Gallweather.com 03/16 08:10:12 40.4 40.0 98 0 North 0 30.19 0.00
KORPORTL111 Portland Oakgrove PO 1E (Milwaukie) 03/16 08:15:03 41.1 40.0 97 0 NNE 0 30.19 0.01
KORLAKEO20 Lake Oswego Palisades 03/16 08:10:30 42.1 39.0 89 0 North 0 30.30 0.00
KORLAKEO14 Lake Oswego Rivergrove 03/16 08:10:17 39.5 39.0 99 0 North 0 30.15 0.00
KOROREGO6 Oregon City Gaffney Lane Neighborhood 03/16 08:14:58 47.4 47.0 100 2 NW 5 30.08 0.00
KORTUALA10 Tualatin Rosewood 03/16 08:10:24 45.1 39.0 80 0 North 0 30.22 0.00
KORMILWA14 Milwaukie Milwaukie - Webster Rd/Roots 03/16 08:11:13 39.0 39.0 99 0 SW 0 29.91 0.00
KORMILWA9 Milwaukie Milwaukie @ 205 Clackamas 03/16 08:14:44 40.3 35.0 81 0 SSW 0 29.96 0.00
KORCLACK9 Clackamas 82nd Drive (GO BLAZERS) 03/16 08:15:01 39.8 40.0 100 0 NNE 0 30.21 0.01
KORCLACK8 Clackamas Watkins Park 03/16 08:14:53 39.4 39.0 99 0 East 2 30.14 0.00
KORLAKEO19 Lake Oswego Lakeview Boulevard 03/16 08:10:46 41.2 38.0 89 0 North 0 30.29 0.00
KORTUALA11 Tualatin Meridian Village 03/16 08:07:30 39.0 39.0 99 0 NNW 0 30.23 0.00
KORCLACK6 Clackamas CHPCS Falcons 03/16 08:14:32 40.5 40.0 99 0 SW 0 30.17 0.00
KORLAKEO16 Lake Oswego Portland Near Road 03/16 07:50:31 40.1 0.0 99 3 North 0 --- 0.00
KORMILWA17 Milwaukie Linwood Neighborhood, Milwaukie, Or 03/16 08:14:58 41.0 41.0 100 3 NNW 3 30.00 0.00
KORWESTL17 West Linn Peach Cove 03/16 08:04:02 40.8 41.0 99 0 NE 0 29.96 0.00
KORMILWA12 Milwaukie Historic Milwaukie 03/16 08:14:55 40.1 40.0 99 0 SE 0 29.83 0.00
KORLAKEO21 Lake Oswego Westlake 03/16 08:15:03 39.2 39.0 99 0 ESE 0 29.92 0.00
KORTUALA2 Tualatin 3DAdams Weather 03/16 08:15:02 40.4 39.0 96 2 NNW 2 30.21 0.00
KUAO Aurora Official Station 03/16 07:53:00 41.0 41.0 100 9 North --- 30.23 ---
KPDX Portland Official Station 03/16 07:53:00 40.0 40.0 100 4 NW --- 30.24 ---
Full Advisory Text
No Warnings

© Ambient Weather and Weather Underground
 Never base important decisions on this or any weather information obtained from the Internet
Updated Automatically by Ambient Weather's Virtual Weather Station  V13.01